When you browse on this site, cookies collect data to enhance your experience and personalize the content and advertising you see.
Visit our Privacy Policy to learn more. By continuing to use the site, you agree to this use of cookies and data.
  • en France
  • Liste des pays
  • À 7 jours
  • Température de l'eau
  • Carte satellitaire
  • Carte météo
  • Widgets météo
  • user-avatar
    Se connecter

    Météo par heure à Cordoba

    Ce jour, 19 Janvier, Samedi

    Heure Température Précipitation Vent Pression Humidité
    00:00 +16°C° 0 mm 1 m/s 728 mmHg 69%
    01:00 +16°C° 0 mm 1 m/s 728 mmHg 70%
    02:00 +15°C° 0 mm 1 m/s 728 mmHg 72%
    03:00 +15°C° 0 mm 1 m/s 728 mmHg 73%
    04:00 +14°C° 0 mm 1 m/s 728 mmHg 74%
    05:00 +14°C° 0 mm 1 m/s 728 mmHg 75%
    06:00 +16°C° 0 mm 1 m/s 728 mmHg 70%
    07:00 +19°C° 0 mm 1 m/s 729 mmHg 65%
    08:00 +21°C° 0 mm 1 m/s 729 mmHg 59%
    09:00 +21°C° 0 mm 2 m/s 729 mmHg 54%
    10:00 +24°C° 0 mm 3 m/s 728 mmHg 48%
    11:00 +26°C° 0 mm 4 m/s 728 mmHg 43%
    12:00 +27°C° 0 mm 4 m/s 728 mmHg 40%
    13:00 +28°C° 0 mm 4 m/s 727 mmHg 38%
    14:00 +29°C° 0 mm 5 m/s 727 mmHg 35%
    15:00 +28°C° 0 mm 5 m/s 726 mmHg 36%
    16:00 +28°C° 0 mm 5 m/s 726 mmHg 37%
    17:00 +28°C° 0 mm 5 m/s 725 mmHg 38%
    18:00 +25°C° 0 mm 5 m/s 725 mmHg 44%
    19:00 +22°C° 0 mm 4 m/s 725 mmHg 51%
    20:00 +20°C° 0 mm 3 m/s 725 mmHg 57%
    21:00 +19°C° 0 mm 3 m/s 726 mmHg 63%
    22:00 +18°C° 0 mm 2 m/s 726 mmHg 69%
    23:00 +17°C° 0 mm 2 m/s 727 mmHg 75%

    Demain, 20 Janvier, Dimanche

    Heure Température Précipitation Vent Pression Humidité
    00:00 +17°C° 0 mm 2 m/s 726 mmHg 80%
    01:00 +16°C° 0 mm 2 m/s 726 mmHg 85%
    02:00 +16°C° 0 mm 2 m/s 726 mmHg 90%
    03:00 +16°C° 0 mm 2 m/s 725 mmHg 90%
    04:00 +16°C° 0 mm 2 m/s 725 mmHg 90%
    05:00 +16°C° 0 mm 2 m/s 725 mmHg 91%
    06:00 +17°C° 0 mm 3 m/s 725 mmHg 84%
    07:00 +19°C° 0 mm 3 m/s 725 mmHg 77%
    08:00 +20°C° 0 mm 4 m/s 725 mmHg 70%
    09:00 +22°C° 0 mm 4 m/s 725 mmHg 64%
    10:00 +25°C° 0 mm 5 m/s 725 mmHg 57%
    11:00 +26°C° 0 mm 5 m/s 724 mmHg 51%
    12:00 +28°C° 0 mm 5 m/s 724 mmHg 47%
    13:00 +29°C° 0 mm 5 m/s 723 mmHg 43%
    14:00 +30°C° 0 mm 6 m/s 723 mmHg 40%
    15:00 +30°C° 0 mm 6 m/s 722 mmHg 40%
    16:00 +30°C° 0 mm 6 m/s 722 mmHg 41%
    17:00 +30°C° 0 mm 6 m/s 721 mmHg 41%
    18:00 +28°C° 0 mm 5 m/s 721 mmHg 51%
    19:00 +26°C° 0 mm 4 m/s 721 mmHg 60%
    20:00 +22°C° 0 mm 4 m/s 721 mmHg 70%
    21:00 +22°C° 0 mm 3 m/s 722 mmHg 75%
    22:00 +21°C° 0 mm 3 m/s 722 mmHg 79%
    23:00 +20°C° 0 mm 3 m/s 723 mmHg 84%

    Après-demain, 21 Janvier, Lundi

    Heure Température Précipitation Vent Pression Humidité
    00:00 +20°C° 0 mm 3 m/s 722 mmHg 86%
    01:00 +19°C° 0 mm 3 m/s 722 mmHg 87%
    02:00 +19°C° 0 mm 2 m/s 722 mmHg 89%
    03:00 +19°C° 0 mm 2 m/s 722 mmHg 88%
    04:00 +19°C° 0 mm 2 m/s 722 mmHg 88%
    05:00 +18°C° 0 mm 2 m/s 721 mmHg 87%
    06:00 +20°C° 0 mm 2 m/s 722 mmHg 79%
    07:00 +23°C° 0 mm 2 m/s 723 mmHg 71%
    08:00 +26°C° 0 mm 3 m/s 723 mmHg 62%
    09:00 +28°C° 0 mm 3 m/s 723 mmHg 55%
    10:00 +30°C° 0 mm 3 m/s 723 mmHg 47%
    11:00 +34°C° 0 mm 3 m/s 724 mmHg 39%
    12:00 +35°C° 0 mm 3 m/s 723 mmHg 37%
    13:00 +36°C° 0 mm 3 m/s 723 mmHg 34%
    14:00 +37°C° 0 mm 4 m/s 722 mmHg 32%
    15:00 +36°C° 0 mm 4 m/s 721 mmHg 34%
    16:00 +36°C° 0 mm 4 m/s 721 mmHg 37%
    17:00 +35°C° 0 mm 4 m/s 720 mmHg 39%
    18:00 +33°C° 0 mm 4 m/s 721 mmHg 46%
    19:00 +30°C° 0 mm 4 m/s 721 mmHg 53%
    20:00 +28°C° 0 mm 3 m/s 721 mmHg 60%
    21:00 +27°C° 0 mm 3 m/s 721 mmHg 64%
    22:00 +26°C° 0 mm 3 m/s 722 mmHg 68%
    23:00 +25°C° 0 mm 3 m/s 722 mmHg 72%

    22 Janvier, Mardi

    Heure Température Précipitation Vent Pression Humidité
    00:00 +25°C° 0 mm 2 m/s 721 mmHg 74%
    01:00 +24°C° 0 mm 2 m/s 721 mmHg 76%
    02:00 +24°C° 0 mm 2 m/s 721 mmHg 78%
    03:00 +24°C° 0 mm 2 m/s 720 mmHg 79%
    04:00 +23°C° 0 mm 2 m/s 720 mmHg 81%
    05:00 +23°C° 0 mm 2 m/s 720 mmHg 82%
    06:00 +25°C° 0 mm 3 m/s 721 mmHg 74%
    07:00 +27°C° 0 mm 3 m/s 721 mmHg 66%
    08:00 +29°C° 0 mm 4 m/s 721 mmHg 58%
    09:00 +32°C° 0 mm 4 m/s 721 mmHg 51%
    10:00 +34°C° 0 mm 5 m/s 721 mmHg 45%
    11:00 +36°C° 0 mm 6 m/s 721 mmHg 39%
    12:00 +38°C° 0 mm 6 m/s 720 mmHg 37%
    13:00 +39°C° 0 mm 6 m/s 720 mmHg 34%
    14:00 +41°C° 0 mm 6 m/s 719 mmHg 32%
    15:00 +40°C° 0 mm 6 m/s 719 mmHg 32%
    16:00 +40°C° 0 mm 6 m/s 718 mmHg 33%
    17:00 +40°C° 0 mm 6 m/s 718 mmHg 34%
    18:00 +37°C° 0 mm 5 m/s 718 mmHg 40%
    19:00 +35°C° 0 mm 4 m/s 719 mmHg 47%
    20:00 +33°C° 0 mm 3 m/s 719 mmHg 53%
    21:00 +30°C° 0.1 mm 2 m/s 719 mmHg 59%
    22:00 +29°C° 0.1 mm 1 m/s 720 mmHg 65%
    23:00 +26°C° 0.1 mm 0 m/s 720 mmHg 71%

    23 Janvier, Mercredi

    Heure Température Précipitation Vent Pression Humidité
    00:00 +27°C° 0.6 mm 1 m/s 720 mmHg 74%
    01:00 +27°C° 0.6 mm 1 m/s 720 mmHg 76%
    02:00 +27°C° 0.6 mm 1 m/s 720 mmHg 78%
    03:00 +26°C° 0.1 mm 1 m/s 720 mmHg 79%
    04:00 +26°C° 0.1 mm 1 m/s 720 mmHg 79%
    05:00 +26°C° 0.1 mm 1 m/s 720 mmHg 80%
    06:00 +27°C° 0.1 mm 1 m/s 720 mmHg 76%
    07:00 +29°C° 0.1 mm 1 m/s 720 mmHg 73%
    08:00 +30°C° 0.1 mm 2 m/s 721 mmHg 70%
    09:00 +31°C° 0.2 mm 2 m/s 721 mmHg 66%
    10:00 +33°C° 0.2 mm 3 m/s 721 mmHg 62%
    11:00 +34°C° 0.2 mm 3 m/s 721 mmHg 58%
    12:00 +34°C° 0.8 mm 4 m/s 721 mmHg 58%
    13:00 +35°C° 0.8 mm 4 m/s 721 mmHg 58%
    14:00 +35°C° 0.8 mm 4 m/s 721 mmHg 58%
    15:00 +35°C° 0.4 mm 4 m/s 720 mmHg 57%
    16:00 +35°C° 0.4 mm 4 m/s 720 mmHg 56%
    17:00 +35°C° 0.4 mm 4 m/s 720 mmHg 55%
    18:00 +34°C° 0.1 mm 3 m/s 720 mmHg 60%
    19:00 +31°C° 0.1 mm 3 m/s 720 mmHg 66%
    20:00 +29°C° 0.1 mm 2 m/s 720 mmHg 71%
    21:00 +29°C° 0.1 mm 2 m/s 720 mmHg 75%
    22:00 +28°C° 0.1 mm 2 m/s 720 mmHg 79%
    23:00 +27°C° 0.1 mm 2 m/s 721 mmHg 83%

    24 Janvier, Jeudi

    Heure Température Précipitation Vent Pression Humidité
    00:00 +27°C° 0.8 mm 2 m/s 720 mmHg 84%
    01:00 +27°C° 0.8 mm 2 m/s 720 mmHg 86%
    02:00 +26°C° 0.8 mm 2 m/s 720 mmHg 88%
    03:00 +26°C° 0.6 mm 2 m/s 720 mmHg 90%
    04:00 +26°C° 0.6 mm 2 m/s 719 mmHg 93%
    05:00 +25°C° 0.6 mm 2 m/s 719 mmHg 95%
    06:00 +26°C° 0 mm 2 m/s 720 mmHg 91%
    07:00 +27°C° 0 mm 2 m/s 720 mmHg 88%
    08:00 +28°C° 0 mm 2 m/s 720 mmHg 84%
    09:00 +30°C° 0 mm 3 m/s 720 mmHg 75%
    10:00 +33°C° 0 mm 4 m/s 720 mmHg 66%
    11:00 +35°C° 0 mm 5 m/s 720 mmHg 56%
    12:00 +37°C° 0 mm 5 m/s 719 mmHg 50%
    13:00 +39°C° 0 mm 5 m/s 719 mmHg 44%
    14:00 +41°C° 0 mm 6 m/s 718 mmHg 38%
    15:00 +41°C° 0 mm 6 m/s 718 mmHg 38%
    16:00 +41°C° 0 mm 6 m/s 717 mmHg 37%
    17:00 +41°C° 0 mm 7 m/s 717 mmHg 37%
    18:00 +39°C° 0 mm 6 m/s 717 mmHg 44%
    19:00 +36°C° 0 mm 5 m/s 717 mmHg 51%
    20:00 +34°C° 0 mm 4 m/s 717 mmHg 59%
    21:00 +33°C° 0 mm 3 m/s 717 mmHg 63%
    22:00 +31°C° 0 mm 2 m/s 717 mmHg 68%
    23:00 +30°C° 0 mm 1 m/s 717 mmHg 73%
    Voir plus